DELTA 1 R/B, 3036

Orbit data source: Space-Track

DELTA 1 R/B, 3036 is space debris in SSO originally from a launch on Fri, 10 Nov 1967 UTC launched from the Air Force Western Test Range (AFWTR). Debris objects in space refer to the collection of defunct objects orbiting the Earth. Examples of debris include non-operational satellites, rocket bodies, and fragments generated from explosions, collisions, or faulty payload assembly.

Loading next visibility...
Identifier
3036, 1967-114B
Orbit
SSO
Country
Flag of USUS
Related business
Manufacturer
UTC
Mission
Spacecraft
Bus & Motor
FW4, Unknown motor
Mass
~40 kg wet, ~40 kg dry
Launch date (UTC)
1967-11-10 (58 years ago)
Launch vehicle
Unknown
Launch site
Air Force Western Test Range (AFWTR)
Object type
Payload
Rocket body
Debris
Shape & HBR
Unknown
Radar Cross Section
Medium (>0.1 m² and <1 m²)

Expand to show TLE details & history
Last TLE update: 12 hours ago

TLE from 12 hours ago
0 DELTA 1 R/B
1  3036U 67114B   25312.75773794 -.00000014  00000-0  20097-3 0  9990
2  3036 102.0142  46.0842 0048107 199.2603 316.1371 12.54135071654712
Epoch: 2025-11-08T18:11Z
TLE epoch observation values (Epoch: 2025-11-08T18:11:08.558Z)
Latitude
24.42922°
Longitude
-89.36435°
Altitude
1,422.835 km
Speed
7.164 km/s
True Right ascension
15h 26m 24s
True Declination
24° 18' 40"
Sunlit
Object was in daylight at epoch
Visualization orbit readout
Latitude
Unknown
Longitude
Unknown
Altitude
Unknown
Speed
Unknown
Apparent Right ascension
Unknown
Apparent Declination
Unknown
Sunlit
N/A
Visualization observer readout
Local Sidereal Time
02:53:53
Azimuth
Unknown
Elevation
Unknown
Doppler factor
Unknown
Orbital elements
Apogee altitude
1,482.437 km
Perigee altitude
1,407.17 km
Semi-major axis
7,822.941 km
Eccentricity
0.00481
Inclination
102.0142°
RAAN
46.0842°
Arg. of periapsis
199.2603°
True anomaly
315.75345°
Mean anomaly
316.1371°
Eccentric anomaly
315.94544°
Mean motion
3.13681 °/min
Orbital period
114.77 mins
BSTAR
0.00020097
Loading maneuver chart data...
Computing Atmospheric mass density...
Loading historical data...
Loading historical data...
Loading historical data...
Loading historical data...
Loading historical data...
Loading historical data...
Loading historical data...
Other satellites on launch #114 in the year 1967 (1967-11-10 UTC)

Documentation

Showing up to 5 results
|